Location: Fisheating Creek Campgrounds
(26.9333°N, 81.3167°W)
Time: 22:59:53
(UTC-04:00)

Daily predictions for brighter satellites

Satellite Brightness Start Highest point End
(mag) Time Altitude Azimuth Time Altitude Azimuth Time Altitude Azimuth
Skynet4D Del rocket 4.2 19:06:38 10° W 19:12:59 90° N 19:20:22 10° E
Fermi 4.1 19:10:02 10° WSW 19:14:06 59° S 19:18:10 10° E
Cosmos 2098 Rocket 4.3 19:11:35 10° SE 19:14:48 23° E 19:18:38 10° NE
Cosmos 1452 Rocket 4.2 19:10:57 10° N 19:15:36 31° ENE 19:20:12 10° SE
Milstar 3 Cent rocket 4.0 19:02:38 10° WNW 19:15:51 58° SSW 19:22:18 10° SE
Cosmos 1315 Rocket 3.9 19:13:24 10° NNE 19:16:48 25° E 19:20:13 10° SE
ALOS 3.4 19:17:39 10° ESE 19:21:17 23° ENE 19:24:55 10° NNE
ASTRO E2 3.3 19:17:44 10° WNW 19:21:35 44° N 19:25:19 10° ENE
COSMO-SKYMED 1 2.5 19:18:40 10° NNE 19:23:01 82° ESE 19:27:20 10° S
Meteor 1-11 4.3 19:17:32 10° N 19:23:18 88° W 19:28:59 10° S
Cosmos 1726 3.3 19:20:32 10° SE 19:23:29 23° E 19:26:27 10° NE
Iridium 4 Rocket 4.2 19:19:51 10° SSE 19:24:44 36° E 19:29:56 10° NNE
Cosmos 2219 Rocket 4.0 19:26:24 10° NE 19:27:21 10° ENE 19:28:17 10° ENE
Cosmos 1484 Rocket 4.0 19:24:32 10° S 19:28:06 45° W 19:31:41 10° NNW
BREEZE M DEB (TANK) 4.3 19:25:31 10° WNW 19:29:49 34° WSW 19:32:09 10° SSE
Delta 198 3.5 19:30:33 10° WSW 19:34:15 49° S 19:37:00 15° E
METEOR-M 4.1 19:30:16 10° SSE 19:35:32 64° ENE 19:40:49 10° N
NOAA 12 4.5 19:32:26 10° SE 19:37:20 40° ENE 19:42:17 10° N
MONITOR-E 4.1 19:34:49 10° SSE 19:37:50 60° ENE 19:40:52 10° N
YAOGAN 1 2.8 19:33:39 10° S 19:37:57 76° WSW 19:42:17 10° NNW
Tiangong 1 3.1 19:36:26 10° W 19:38:38 22° SW 19:40:49 10° SSE
SL-24 R/B - RUBIN 2 3.9 19:35:15 10° N 19:39:36 41° ENE 19:43:40 10° SE
RESURS DK-1 2.4 19:37:59 10° N 19:42:03 57° ENE 19:46:05 10° SSE
Cosmos 1821 Rocket 4.0 19:36:55 10° SSE 19:42:51 55° E 19:48:52 10° NNE
Cosmos 1703 3.5 19:39:38 10° N 19:43:32 72° W 19:47:23 10° S
Cosmos 2151 3.2 19:39:55 10° N 19:44:10 75° W 19:48:22 10° S
Cosmos 1934 Rocket 4.4 19:38:57 10° SSE 19:44:48 41° E 19:50:42 10° NNE
Cosmos 1048 Rocket 4.1 19:39:53 10° SSW 19:45:01 79° WNW 19:50:09 10° NNE
SL-16 R/B 3.9 19:39:52 10° NW 19:45:01 37° WSW 19:50:10 10° S
Cosmos 1908 3.8 19:41:12 10° SSW 19:45:04 62° W 19:48:57 10° N
Atlas Centaur 2 1.8 19:43:27 10° WNW 19:47:55 75° NNE 19:51:47 20° E
Cosmos 2239 Rocket 4.4 19:43:25 10° S 19:49:27 63° E 19:55:30 10° NNE
SAR-Lupe-3 4.5 19:46:38 10° NNE 19:50:11 65° ESE 19:53:43 10° S
H-2A R/B 4.3 19:55:44 19° NE 19:55:44 19° NE 19:57:27 10° NNE
Cosmos 2237 4.3 19:48:49 10° N 19:54:25 54° ENE 19:59:58 10° SE
Molniya-1 3.1 19:52:34 10° SSW 19:54:07 41° S 19:54:07 41° S
Cosmos 2058 3.9 19:52:33 10° NNW 19:56:35 50° W 20:00:33 10° SSW
Cosmos 1420 Rocket 4.0 19:53:51 10° N 19:59:05 62° ENE 20:04:17 10° SSE
Cosmos 2227 Rocket 2.7 19:56:19 10° S 20:01:27 37° ESE 20:04:49 19° NE
Aureole 2 4.5 20:04:57 10° NNW 20:08:17 82° WSW 20:12:11 10° SSE
Cosmos 2221 3.9 20:04:23 10° SSW 20:08:26 41° W 20:12:32 10° N
Thor Agena Rocket 3.4 20:04:51 10° NNE 20:09:56 88° WNW 20:14:58 10° SSW
Cosmos 1300 2.5 20:10:49 10° S 20:14:37 82° E 20:18:27 10° N
FALCON 9 R/B 2.6 20:13:16 10° W 20:15:43 32° SSW 20:18:29 18° SSE
Cosmos 1605 Rocket 4.0 20:11:19 10° SSE 20:17:13 51° E 20:23:05 10° NNE
Cosmos 2123 Rocket 4.2 20:15:08 10° N 20:21:08 47° E 20:27:08 10° SSE
Cosmos 921 Rocket 4.1 20:19:00 10° NNW 20:23:13 46° W 20:27:19 10° S
Cosmos 2360 Rocket 3.2 20:18:18 10° NNW 20:23:41 46° WSW 20:29:04 10° S
ATLAS 2AS CENTAUR RB 4.1 20:16:57 10° WSW 20:28:46 21° SSW 20:32:05 14° SSE
Hubble Space Telescope 0.7 20:25:09 10° WSW 20:29:13 69° S 20:29:13 69° S
COSMOS 2428 2.5 20:25:16 10° NNW 20:30:57 77° ENE 20:34:15 26° SSE
CZ-3 Stage 3 3.3 20:30:00 10° WNW 20:30:09 12° WNW 20:30:09 12° WNW
USA 267 3.2 20:28:50 21° NE 20:33:26 82° NW 20:39:57 10° SW
Meteor 2-2 Rocket 4.1 20:28:02 10° S 20:33:47 82° E 20:39:27 10° N
Cosmos 2333 Rocket 3.1 20:28:47 10° N 20:32:29 32° NNE 20:32:29 32° NNE
CZ-4C R/B 4.1 20:30:18 10° WSW 20:34:23 24° NW 20:38:50 10° N
FENGYUN 3A 4.3 20:29:51 10° S 20:35:06 55° W 20:40:24 10° NNW
Cosmos 2297 Rocket 2.0 20:33:22 10° S 20:38:58 71° ESE 20:39:56 58° NE
FengYun 1-2 T 4.2 20:41:31 10° S 20:47:01 80° WSW 20:52:31 10° NNW
Cosmos 2082 3.5 20:41:41 10° SSW 20:47:24 83° ESE 20:48:11 68° NE
Skynet4D Del rocket 4.2 20:59:07 10° W 21:06:04 76° SSW 21:06:32 73° SSE
Cosmos 2219 Rocket 2.9 21:06:10 10° NNW 21:10:07 47° NNW 21:10:07 47° NNW
IUS-9 SRM-1 3.9 20:53:23 10° WSW 21:14:49 75° S 21:14:49 75° S
Atlas Centaur 2 3.8 21:31:54 10° W 21:34:26 28° W 21:34:26 28° W
Cosmos 2227 Rocket 4.3 21:41:17 10° WSW 21:45:30 21° WNW 21:46:46 20° NW
